Location: Unspecified
(42.7170°S, 0.0000°E)
Time: 22:09:00
(UTC+00:00)

N. Korean satellite - Pass Details

Date: 25 May 2019
Orbit: 455 x 508 km, 97.2° (Epoch: 20 October)

Event Time Altitude Azimuth Distance (km) Brightness Sun altitude
Rises 06:21:00 0° 329° (NNW) 2,477 10.0 -9.8°
Reaches altitude 10° 06:24:00 10° 299° (WNW) 1,620 8.8 -9.3°
Maximum altitude 06:25:37 13° 271° (W) 1,469 8.4 -9.0°
Enters shadow 06:26:29 12° 255° (WSW) 1,521 8.4 -8.8°
